BAW771C ESSA-EGLL

Flight info

Callsign BAW771C
Flight time N/A
Altitude 36000
Route ARS6G ARS N623 BEDLA N866 LAPSI DCT AAL DCT GOLUM DCT UPGAS DCT TIPAN DCT WECOW DCT BINBO DCT AKOKO N866 BUKUT P7 BARMI BARMI1H
Aircraft A21N/M-SDE3FGIJ1LRWXYZ/SB1G1

Departure

Time 2026-05-06 17:56
Airport Stockholm-Arlanda Airport (ESSA)

Arrival

Time N/A
Airport London Heathrow Airport (EGLL)
Time Latitude Longitude Altitude Speed Heading
2026-05-06 17:04 59.64343 17.92864 118 ft 0 kts 36°
2026-05-06 17:43 59.64334 17.92851 113 ft 4 kts 38°
2026-05-06 17:43 59.64318 17.92828 118 ft 4 kts 15°
2026-05-06 17:44 59.64298 17.92832 118 ft 4 kts 17°
2026-05-06 17:44 59.64281 17.92811 118 ft 4 kts 63°
2026-05-06 17:44 59.64282 17.92774 118 ft 4 kts 111°
2026-05-06 17:44 59.64291 17.92727 115 ft 2 kts 111°
2026-05-06 17:45 59.64292 17.92725 118 ft 0 kts 111°
2026-05-06 17:47 59.64290 17.92734 118 ft 2 kts 111°
2026-05-06 17:47 59.64271 17.92752 115 ft 5 kts 185°
2026-05-06 17:47 59.64237 17.92727 117 ft 6 kts 168°
2026-05-06 17:48 59.64211 17.92796 116 ft 7 kts 117°
2026-05-06 17:48 59.64185 17.92882 114 ft 8 kts 145°
2026-05-06 17:48 59.64132 17.92856 114 ft 9 kts 217°
2026-05-06 17:48 59.64135 17.92740 118 ft 10 kts 300°
2026-05-06 17:49 59.64167 17.92616 117 ft 11 kts 297°
2026-05-06 17:49 59.64206 17.92469 117 ft 14 kts 297°
2026-05-06 17:49 59.64252 17.92293 119 ft 15 kts 297°
2026-05-06 17:49 59.64302 17.92109 119 ft 15 kts 298°
2026-05-06 17:50 59.64355 17.91930 115 ft 14 kts 333°
2026-05-06 17:50 59.64454 17.91947 114 ft 15 kts 11°
2026-05-06 17:50 59.64561 17.91989 115 ft 16 kts
2026-05-06 17:50 59.64678 17.92028 114 ft 18 kts 10°
2026-05-06 17:51 59.64802 17.92073 111 ft 18 kts 10°
2026-05-06 17:51 59.64928 17.92119 112 ft 19 kts 10°
2026-05-06 17:51 59.65060 17.92166 112 ft 20 kts 10°
2026-05-06 17:51 59.65198 17.92216 112 ft 21 kts 10°
2026-05-06 17:52 59.65343 17.92269 110 ft 22 kts 10°
2026-05-06 17:52 59.65495 17.92324 110 ft 23 kts 10°
2026-05-06 17:52 59.65654 17.92381 110 ft 24 kts 10°
2026-05-06 17:52 59.65820 17.92441 111 ft 25 kts 10°
2026-05-06 17:53 59.65999 17.92507 115 ft 27 kts 10°
2026-05-06 17:53 59.66160 17.92564 117 ft 20 kts 10°
2026-05-06 17:53 59.66299 17.92615 123 ft 17 kts 10°
2026-05-06 17:53 59.66419 17.92658 127 ft 16 kts
2026-05-06 17:54 59.66532 17.92608 129 ft 18 kts 341°
2026-05-06 17:54 59.66618 17.92512 129 ft 14 kts 288°
2026-05-06 17:54 59.66622 17.92390 130 ft 6 kts 269°
2026-05-06 17:54 59.66605 17.92363 129 ft 0 kts 189°
2026-05-06 17:55 59.66554 17.92347 128 ft 33 kts 189°
2026-05-06 17:55 59.66083 17.92180 123 ft 102 kts 190°
2026-05-06 17:55 59.65189 17.91852 110 ft 156 kts 190°
2026-05-06 17:55 59.64076 17.91418 547 ft 162 kts 189°
2026-05-06 17:56 59.62953 17.91042 1152 ft 164 kts 188°
2026-05-06 17:56 59.61780 17.90637 1641 ft 180 kts 192°
2026-05-06 17:56 59.60716 17.89191 2132 ft 200 kts 234°
2026-05-06 17:56 59.60066 17.86716 2740 ft 212 kts 241°
2026-05-06 17:57 59.59333 17.84076 3356 ft 225 kts 239°
2026-05-06 17:57 59.58556 17.81367 4134 ft 229 kts 240°
2026-05-06 17:57 59.57798 17.78441 4664 ft 249 kts 242°
2026-05-06 17:57 59.57016 17.75269 5287 ft 263 kts 247°
2026-05-06 17:58 59.56643 17.71717 6072 ft 269 kts 268°
2026-05-06 17:58 59.56709 17.68008 6918 ft 272 kts 273°
2026-05-06 17:58 59.56814 17.64271 7752 ft 274 kts 272°
2026-05-06 17:58 59.56914 17.60493 8587 ft 278 kts 272°
2026-05-06 17:59 59.57005 17.56655 9424 ft 281 kts 272°
2026-05-06 17:59 59.57094 17.52779 10227 ft 287 kts 272°
2026-05-06 17:59 59.57180 17.48702 10610 ft 308 kts 272°
2026-05-06 17:59 59.57279 17.44323 10917 ft 330 kts 272°
2026-05-06 18:00 59.57368 17.39709 11427 ft 342 kts 272°
2026-05-06 18:00 59.57452 17.35058 12182 ft 345 kts 272°
2026-05-06 18:00 59.57538 17.30317 12971 ft 347 kts 272°
2026-05-06 18:00 59.57621 17.25543 13739 ft 349 kts 272°
2026-05-06 18:01 59.57704 17.20745 14459 ft 352 kts 271°
2026-05-06 18:01 59.57792 17.15908 15151 ft 354 kts 271°
2026-05-06 18:01 59.57874 17.11024 15817 ft 357 kts 271°
2026-05-06 18:01 59.57955 17.06103 16487 ft 359 kts 271°
2026-05-06 18:02 59.58039 17.01165 17111 ft 362 kts 271°
2026-05-06 18:02 59.58122 16.96185 17717 ft 364 kts 271°
2026-05-06 18:02 59.58207 16.91179 18311 ft 366 kts 271°
2026-05-06 18:02 59.58281 16.86138 18892 ft 368 kts 271°
2026-05-06 18:03 59.58332 16.82788 19256 ft 370 kts 270°
2026-05-06 18:03 59.58401 16.77690 19769 ft 373 kts 270°
2026-05-06 18:03 59.58481 16.72558 20275 ft 376 kts 270°
2026-05-06 18:03 59.58557 16.67391 20782 ft 378 kts 271°
2026-05-06 18:04 59.58851 16.62213 21280 ft 382 kts 278°
2026-05-06 18:04 59.59341 16.57040 21773 ft 384 kts 279°
2026-05-06 18:04 59.59860 16.51848 22250 ft 387 kts 279°
2026-05-06 18:04 59.60387 16.46620 22730 ft 389 kts 279°
2026-05-06 18:05 59.60919 16.41358 23198 ft 392 kts 278°
2026-05-06 18:05 59.61449 16.36064 23665 ft 394 kts 278°
2026-05-06 18:05 59.61900 16.30706 24111 ft 395 kts 273°
2026-05-06 18:05 59.61899 16.25302 24550 ft 394 kts 262°
2026-05-06 18:06 59.61341 16.20007 24969 ft 394 kts 251°
2026-05-06 18:06 59.60234 16.15125 25383 ft 396 kts 239°
2026-05-06 18:06 59.58705 16.10599 25818 ft 397 kts 234°
2026-05-06 18:06 59.57086 16.06161 26235 ft 399 kts 234°
2026-05-06 18:07 59.55457 16.01693 26641 ft 401 kts 234°
2026-05-06 18:07 59.53838 15.97209 27024 ft 403 kts 234°
2026-05-06 18:07 59.52208 15.92679 27321 ft 407 kts 234°
2026-05-06 18:07 59.50568 15.88103 27634 ft 410 kts 234°
2026-05-06 18:08 59.48913 15.83507 27982 ft 412 kts 234°
2026-05-06 18:08 59.47254 15.78893 28309 ft 414 kts 234°
2026-05-06 18:08 59.45588 15.74270 28632 ft 416 kts 234°
2026-05-06 18:08 59.43906 15.69621 28951 ft 418 kts 234°
2026-05-06 18:09 59.42217 15.64966 29259 ft 419 kts 234°
2026-05-06 18:09 59.40521 15.60318 29649 ft 418 kts 234°
2026-05-06 18:09 59.38830 15.55687 30050 ft 417 kts 234°
2026-05-06 18:09 59.37144 15.51074 30437 ft 416 kts 234°
2026-05-06 18:10 59.35481 15.46529 30765 ft 416 kts 234°
2026-05-06 18:10 59.33795 15.41920 31114 ft 415 kts 234°
2026-05-06 18:10 59.32111 15.37325 31438 ft 415 kts 234°
2026-05-06 18:10 59.30423 15.32740 31758 ft 415 kts 234°
2026-05-06 18:11 59.28733 15.28157 32060 ft 415 kts 234°
2026-05-06 18:11 59.27043 15.23581 32355 ft 415 kts 234°
2026-05-06 18:11 59.25353 15.19019 32641 ft 415 kts 234°
2026-05-06 18:11 59.23664 15.14458 32928 ft 414 kts 234°
2026-05-06 18:12 59.21975 15.09892 33195 ft 414 kts 234°
2026-05-06 18:12 59.20294 15.05344 33461 ft 414 kts 234°
2026-05-06 18:12 59.18600 15.00806 33705 ft 413 kts 234°
2026-05-06 18:12 59.16905 14.96268 33935 ft 413 kts 234°
2026-05-06 18:13 59.15212 14.91743 34167 ft 413 kts 234°
2026-05-06 18:13 59.13521 14.87215 34378 ft 414 kts 234°
2026-05-06 18:13 59.11819 14.82689 34572 ft 414 kts 234°
2026-05-06 18:13 59.10113 14.78162 34750 ft 415 kts 234°
2026-05-06 18:14 59.08404 14.73630 34934 ft 416 kts 234°
2026-05-06 18:14 59.06692 14.69081 35102 ft 417 kts 234°
2026-05-06 18:14 59.04973 14.64538 35277 ft 417 kts 233°
2026-05-06 18:14 59.03274 14.60064 35429 ft 418 kts 233°
2026-05-06 18:15 59.01546 14.55519 35587 ft 418 kts 234°
2026-05-06 18:15 58.99824 14.50973 35736 ft 419 kts 233°
2026-05-06 18:15 58.98096 14.46417 35891 ft 419 kts 234°
2026-05-06 18:15 58.96362 14.41866 35970 ft 421 kts 233°
2026-05-06 18:16 58.92876 14.32761 35946 ft 420 kts 233°
2026-05-06 18:16 58.89389 14.23710 35934 ft 420 kts 233°
2026-05-06 18:17 58.85907 14.14681 35934 ft 420 kts 233°
2026-05-06 18:17 58.82408 14.05655 35933 ft 420 kts 233°
2026-05-06 18:18 58.78891 13.96661 35929 ft 420 kts 233°
2026-05-06 18:18 58.75375 13.87659 35930 ft 420 kts 233°
2026-05-06 18:19 58.71851 13.78677 35930 ft 421 kts 233°
2026-05-06 18:19 58.68316 13.69713 35930 ft 421 kts 233°
2026-05-06 18:20 58.64779 13.60747 35931 ft 421 kts 233°
2026-05-06 18:20 58.61232 13.51806 35923 ft 421 kts 232°
2026-05-06 18:21 58.57679 13.42887 35915 ft 421 kts 233°
2026-05-06 18:21 58.54112 13.34004 35911 ft 421 kts 232°
2026-05-06 18:22 58.50572 13.25163 35911 ft 421 kts 232°
2026-05-06 18:22 58.47003 13.16291 35911 ft 421 kts 232°
2026-05-06 18:23 58.43421 13.07452 35910 ft 421 kts 232°
2026-05-06 18:23 58.39838 12.98618 35909 ft 421 kts 232°
2026-05-06 18:24 58.36248 12.89787 35910 ft 421 kts 232°
2026-05-06 18:24 58.32668 12.80957 35911 ft 421 kts 232°
2026-05-06 18:25 58.29060 12.72165 35912 ft 421 kts 232°
2026-05-06 18:25 58.25451 12.63384 35914 ft 422 kts 232°
2026-05-06 18:26 58.21833 12.54618 35919 ft 422 kts 232°
2026-05-06 18:26 58.18183 12.45900 35928 ft 422 kts 232°
2026-05-06 18:27 58.14543 12.37175 35940 ft 422 kts 232°
2026-05-06 18:27 58.10901 12.28460 35941 ft 422 kts 232°
2026-05-06 18:28 58.07249 12.19755 35940 ft 423 kts 232°
2026-05-06 18:28 58.03612 12.11112 35941 ft 423 kts 232°
2026-05-06 18:29 57.99948 12.02434 35950 ft 423 kts 232°
2026-05-06 18:29 57.96277 11.93772 35949 ft 423 kts 231°
2026-05-06 18:30 57.92607 11.85120 35956 ft 423 kts 232°
2026-05-06 18:30 57.88937 11.76485 35960 ft 423 kts 231°
2026-05-06 18:31 57.85246 11.67879 35960 ft 423 kts 231°
2026-05-06 18:31 57.81556 11.59277 35960 ft 423 kts 231°
2026-05-06 18:32 57.77853 11.50705 35960 ft 423 kts 231°
2026-05-06 18:32 57.74143 11.42144 35960 ft 423 kts 231°
2026-05-06 18:33 57.70425 11.33606 35960 ft 423 kts 231°
2026-05-06 18:33 57.66720 11.25128 35960 ft 424 kts 231°
2026-05-06 18:34 57.62996 11.16589 35960 ft 424 kts 231°
2026-05-06 18:34 57.59256 11.08089 35961 ft 424 kts 231°
2026-05-06 18:35 57.55508 10.99600 35961 ft 424 kts 231°
2026-05-06 18:35 57.51750 10.91143 35961 ft 424 kts 231°
2026-05-06 18:36 57.47995 10.82683 35961 ft 424 kts 231°
2026-05-06 18:36 57.44231 10.74236 35960 ft 424 kts 231°
2026-05-06 18:37 57.41097 10.67241 35960 ft 424 kts 231°
2026-05-06 18:37 57.36685 10.57415 35960 ft 424 kts 231°
2026-05-06 18:38 57.32912 10.49019 35960 ft 424 kts 230°
2026-05-06 18:38 57.29129 10.40650 35961 ft 424 kts 230°
2026-05-06 18:39 57.25342 10.32298 35961 ft 424 kts 230°
2026-05-06 18:40 57.19660 10.19863 35961 ft 424 kts 230°
2026-05-06 18:40 57.15854 10.11542 35958 ft 425 kts 230°
2026-05-06 18:41 57.12037 10.03231 35960 ft 425 kts 230°
2026-05-06 18:41 57.08620 9.94395 35960 ft 425 kts 239°
2026-05-06 18:42 57.05670 9.84984 35960 ft 425 kts 240°
2026-05-06 18:42 57.02687 9.75575 35959 ft 425 kts 239°
2026-05-06 18:43 56.99681 9.66219 35960 ft 426 kts 239°
2026-05-06 18:43 56.96666 9.56875 35960 ft 426 kts 239°
2026-05-06 18:44 56.93648 9.47541 35961 ft 426 kts 239°
2026-05-06 18:44 56.90613 9.38222 35959 ft 426 kts 239°
2026-05-06 18:45 56.87569 9.28922 35960 ft 426 kts 239°
2026-05-06 18:45 56.84515 9.19630 35960 ft 426 kts 239°
2026-05-06 18:46 56.81479 9.10401 35961 ft 426 kts 239°
2026-05-06 18:46 56.78414 9.01121 35963 ft 427 kts 239°
2026-05-06 18:47 56.75351 8.91843 35961 ft 427 kts 239°
2026-05-06 18:47 56.72268 8.82592 35960 ft 427 kts 239°
2026-05-06 18:48 56.69187 8.73359 35960 ft 427 kts 239°
2026-05-06 18:48 56.66090 8.64138 35960 ft 427 kts 238°
2026-05-06 18:49 56.62982 8.54933 35960 ft 427 kts 238°
2026-05-06 18:49 56.59868 8.45738 35960 ft 428 kts 238°
2026-05-06 18:50 56.56750 8.36541 35962 ft 428 kts 238°
2026-05-06 18:50 56.54148 8.28882 35961 ft 429 kts 238°
2026-05-06 18:51 56.51002 8.19717 35960 ft 429 kts 238°
2026-05-06 18:51 56.47854 8.10545 35961 ft 428 kts 238°
2026-05-06 18:52 56.44703 8.01393 35966 ft 429 kts 238°
2026-05-06 18:52 56.41543 7.92238 35971 ft 429 kts 238°
2026-05-06 18:53 56.38399 7.83169 35972 ft 429 kts 238°
2026-05-06 18:53 56.35215 7.74051 35971 ft 429 kts 238°
2026-05-06 18:54 56.32033 7.64942 35969 ft 429 kts 238°
2026-05-06 18:54 56.28835 7.55870 35971 ft 429 kts 237°
2026-05-06 18:55 56.25623 7.46822 35970 ft 429 kts 238°
2026-05-06 18:55 56.22416 7.37758 35971 ft 429 kts 238°
2026-05-06 18:56 56.19215 7.28721 35970 ft 429 kts 238°
2026-05-06 18:56 56.16022 7.19766 35971 ft 429 kts 237°
2026-05-06 18:57 56.12801 7.10775 35979 ft 428 kts 237°
2026-05-06 18:57 56.09575 7.01803 35980 ft 428 kts 237°
2026-05-06 18:58 56.06347 6.92835 35980 ft 428 kts 237°
2026-05-06 18:58 56.03112 6.83876 35980 ft 428 kts 237°
2026-05-06 18:59 55.99873 6.74942 35980 ft 428 kts 237°
2026-05-06 18:59 55.96616 6.66005 35979 ft 429 kts 237°
2026-05-06 19:00 55.93355 6.57086 35980 ft 429 kts 237°
2026-05-06 19:00 55.90087 6.48175 35993 ft 429 kts 237°
2026-05-06 19:01 55.86813 6.39282 35980 ft 429 kts 237°
2026-05-06 19:01 55.83551 6.30459 35980 ft 429 kts 237°
2026-05-06 19:02 55.80264 6.21607 35981 ft 428 kts 237°
2026-05-06 19:02 55.76977 6.12782 35986 ft 428 kts 237°
2026-05-06 19:03 55.73687 6.03966 35985 ft 428 kts 237°
2026-05-06 19:03 55.70383 5.95174 35986 ft 428 kts 237°
2026-05-06 19:04 55.67082 5.86380 36001 ft 428 kts 236°
2026-05-06 19:04 55.63768 5.77607 35999 ft 429 kts 236°
2026-05-06 19:05 55.60460 5.68898 36002 ft 429 kts 236°
2026-05-06 19:05 55.57104 5.60092 36001 ft 429 kts 236°
2026-05-06 19:06 55.53798 5.51357 36015 ft 430 kts 237°
2026-05-06 19:06 55.50463 5.42595 36012 ft 430 kts 236°
2026-05-06 19:07 55.47108 5.33864 36011 ft 430 kts 236°
2026-05-06 19:07 55.43228 5.25863 36011 ft 432 kts 221°
2026-05-06 19:08 55.38512 5.19305 36022 ft 432 kts 218°
2026-05-06 19:08 55.33758 5.12816 36030 ft 433 kts 219°
2026-05-06 19:09 55.29017 5.06297 36030 ft 433 kts 219°
2026-05-06 19:09 55.24225 4.99898 36026 ft 434 kts 213°
2026-05-06 19:10 55.18938 4.94768 36031 ft 435 kts 209°
2026-05-06 19:10 55.13635 4.89823 36031 ft 435 kts 209°
2026-05-06 19:11 55.08302 4.84823 36032 ft 435 kts 209°
2026-05-06 19:11 55.02963 4.79821 36028 ft 435 kts 209°
2026-05-06 19:12 54.97619 4.74826 36022 ft 436 kts 209°
2026-05-06 19:12 54.92276 4.69844 36021 ft 436 kts 209°
2026-05-06 19:13 54.86927 4.64883 36022 ft 435 kts 209°
2026-05-06 19:13 54.81581 4.59944 36021 ft 436 kts 209°
2026-05-06 19:14 54.76254 4.55042 36020 ft 436 kts 209°
2026-05-06 19:14 54.70903 4.50117 36019 ft 436 kts 209°
2026-05-06 19:15 54.65549 4.45193 36027 ft 436 kts 209°
2026-05-06 19:15 54.60196 4.40268 36030 ft 436 kts 209°
2026-05-06 19:16 54.54831 4.35364 36030 ft 436 kts 209°
2026-05-06 19:16 54.49463 4.30481 36029 ft 436 kts 209°
2026-05-06 19:17 54.44090 4.25610 36030 ft 437 kts 209°
2026-05-06 19:17 54.38709 4.20748 36022 ft 436 kts 208°
2026-05-06 19:18 54.33372 4.15931 36020 ft 437 kts 209°
2026-05-06 19:18 54.27990 4.11100 36020 ft 437 kts 208°
2026-05-06 19:19 54.22604 4.06277 36020 ft 437 kts 208°
2026-05-06 19:19 54.17209 4.01464 36021 ft 437 kts 209°
2026-05-06 19:20 54.11818 3.96654 36020 ft 437 kts 208°
2026-05-06 19:20 54.06429 3.91874 36019 ft 437 kts 208°
2026-05-06 19:21 54.01040 3.87103 36020 ft 437 kts 208°
2026-05-06 19:21 53.95682 3.82374 36020 ft 437 kts 208°
2026-05-06 19:22 53.90291 3.77630 36021 ft 436 kts 208°
2026-05-06 19:22 53.84895 3.72890 36020 ft 437 kts 208°
2026-05-06 19:23 53.79497 3.68167 36010 ft 437 kts 208°
2026-05-06 19:23 53.74091 3.63446 36008 ft 437 kts 208°
2026-05-06 19:24 53.68682 3.58747 36013 ft 437 kts 208°
2026-05-06 19:24 53.63267 3.54056 36009 ft 437 kts 208°
2026-05-06 19:25 53.57855 3.49383 36003 ft 438 kts 208°
2026-05-06 19:25 53.52432 3.44710 36000 ft 437 kts 208°
2026-05-06 19:26 53.47052 3.40075 35994 ft 437 kts 208°
2026-05-06 19:26 53.41632 3.35426 35997 ft 437 kts 208°
2026-05-06 19:27 53.36209 3.30790 36000 ft 438 kts 208°
2026-05-06 19:27 53.30782 3.26170 35997 ft 438 kts 208°
2026-05-06 19:28 53.25341 3.21540 35996 ft 438 kts 208°
2026-05-06 19:28 53.19899 3.16934 36002 ft 438 kts 208°
2026-05-06 19:29 53.14453 3.12329 36015 ft 439 kts 208°
2026-05-06 19:29 53.09004 3.07729 36027 ft 439 kts 208°
2026-05-06 19:30 53.03548 3.03151 36024 ft 439 kts 207°
2026-05-06 19:30 52.98096 2.98586 36014 ft 439 kts 207°
2026-05-06 19:31 52.92641 2.94028 36014 ft 439 kts 207°
2026-05-06 19:31 52.84456 2.87223 36035 ft 439 kts 207°
2026-05-06 19:32 52.78994 2.82688 36030 ft 439 kts 207°
2026-05-06 19:32 52.73530 2.78164 36036 ft 439 kts 207°
2026-05-06 19:33 52.70812 2.75919 35691 ft 434 kts 207°
2026-05-06 19:33 52.68102 2.73693 34749 ft 439 kts 207°
2026-05-06 19:33 52.65395 2.71459 33989 ft 442 kts 207°
2026-05-06 19:33 52.62645 2.69191 33292 ft 442 kts 207°
2026-05-06 19:34 52.59895 2.66940 32619 ft 442 kts 207°
2026-05-06 19:34 52.57146 2.64686 31987 ft 440 kts 207°
2026-05-06 19:34 52.54412 2.62451 31403 ft 438 kts 207°
2026-05-06 19:34 52.51695 2.60234 30834 ft 435 kts 207°
2026-05-06 19:35 52.48993 2.58033 30240 ft 433 kts 207°
2026-05-06 19:35 52.46311 2.55842 29767 ft 428 kts 207°
2026-05-06 19:35 52.43661 2.53690 29450 ft 422 kts 207°
2026-05-06 19:35 52.41039 2.51559 29239 ft 420 kts 207°
2026-05-06 19:36 52.38421 2.49432 29072 ft 420 kts 207°
2026-05-06 19:36 52.35808 2.47312 28914 ft 419 kts 207°
2026-05-06 19:36 52.33196 2.45204 28763 ft 418 kts 207°
2026-05-06 19:36 52.30593 2.43097 28613 ft 417 kts 207°
2026-05-06 19:37 52.27995 2.40996 28462 ft 417 kts 207°
2026-05-06 19:37 52.25396 2.38892 28311 ft 416 kts 207°
2026-05-06 19:37 52.22833 2.36826 28160 ft 415 kts 207°
2026-05-06 19:37 52.21084 2.35422 28060 ft 414 kts 207°
2026-05-06 19:38 52.17662 2.32688 27861 ft 413 kts 207°
2026-05-06 19:38 52.15080 2.30635 27710 ft 412 kts 207°
2026-05-06 19:38 52.12527 2.28545 27560 ft 411 kts 210°
2026-05-06 19:38 52.10155 2.25962 27407 ft 409 kts 220°
2026-05-06 19:39 52.08124 2.22733 27264 ft 408 kts 229°
2026-05-06 19:39 52.06262 2.19261 27127 ft 407 kts 230°
2026-05-06 19:39 52.04422 2.15764 26992 ft 406 kts 230°
2026-05-06 19:39 52.02582 2.12294 26868 ft 406 kts 229°
2026-05-06 19:40 52.01355 2.10003 26769 ft 405 kts 229°
2026-05-06 19:40 51.99499 2.06553 26641 ft 404 kts 229°
2026-05-06 19:40 51.97643 2.03127 26505 ft 404 kts 229°
2026-05-06 19:40 51.95788 1.99713 26379 ft 403 kts 229°
2026-05-06 19:41 51.93939 1.96306 26244 ft 402 kts 229°
2026-05-06 19:41 51.92091 1.92901 26101 ft 401 kts 229°
2026-05-06 19:41 51.90243 1.89514 25977 ft 401 kts 229°
2026-05-06 19:41 51.88403 1.86134 25819 ft 400 kts 229°
2026-05-06 19:42 51.86566 1.82764 25661 ft 399 kts 229°
2026-05-06 19:42 51.84734 1.79414 25521 ft 398 kts 229°
2026-05-06 19:42 51.82895 1.76065 25384 ft 397 kts 229°
2026-05-06 19:42 51.81059 1.72727 25250 ft 397 kts 229°
2026-05-06 19:43 51.79219 1.69396 25100 ft 396 kts 229°
2026-05-06 19:43 51.77389 1.66079 24992 ft 396 kts 229°
2026-05-06 19:43 51.75733 1.62541 24984 ft 396 kts 239°
2026-05-06 19:43 51.74630 1.58566 24902 ft 389 kts 253°
2026-05-06 19:44 51.74131 1.54313 24313 ft 386 kts 263°
2026-05-06 19:44 51.73897 1.50000 23668 ft 386 kts 265°
2026-05-06 19:44 51.73689 1.45685 23047 ft 386 kts 265°
2026-05-06 19:44 51.73450 1.41383 22478 ft 384 kts 264°
2026-05-06 19:45 51.73183 1.37115 21905 ft 381 kts 264°
2026-05-06 19:45 51.72904 1.32872 21304 ft 378 kts 264°